| time (UTC) | temp C | wind direction | speed KPH | gust KPH | rain 1hr cm | rain 24hr cm | rain mn cm | humidity % | barometer mb |
| 20260503180017 | 7 | 0.0 | 3.2 | 0.00 | 0.00 | 0.00 | 88 | 1028.5 | |
| 20260503173017 | 7 | 0.0 | 4.8 | 0.00 | 0.00 | 0.00 | 87 | 1028.1 | |
| 20260503053016 | 18 | 113 | 12.9 | 22.5 | 0.00 | 0.00 | 0.00 | 61 | 1025.9 |
| 20260503050016 | 17 | 113 | 9.7 | 24.1 | 0.00 | 0.00 | 0.00 | 64 | 1026.4 |
| 20260503043017 | 17 | 113 | 11.3 | 22.5 | 0.00 | 0.00 | 0.00 | 69 | 1026.9 |
| 20260503040017 | 16 | 113 | 16.1 | 27.4 | 0.00 | 0.00 | 0.00 | 71 | 1027.4 |
| 20260503033017 | 15 | 113 | 14.5 | 27.4 | 0.00 | 0.00 | 0.00 | 74 | 1027.7 |
| 20260503030016 | 14 | 135 | 9.7 | 20.9 | 0.00 | 0.00 | 0.00 | 78 | 1028.0 |
| 20260503023016 | 13 | 158 | 6.4 | 19.3 | 0.00 | 0.00 | 0.00 | 85 | 1028.2 |
| 20260503020019 | 11 | 180 | 3.2 | 12.9 | 0.00 | 0.00 | 0.00 | 93 | 1028.5 |
| 20260503013018 | 11 | 0 | 1.6 | 4.8 | 0.00 | 0.00 | 0.00 | 93 | 1028.6 |
| 20260503010016 | 10 | 0.0 | 3.2 | 0.00 | 0.00 | 0.00 | 93 | 1028.7 | |
| 20260503003039 | 8 | 0.0 | 3.2 | 0.00 | 0.00 | 0.00 | 92 | 1028.3 | |
| 20260503000018 | 8 | 0.0 | 3.2 | 0.00 | 0.00 | 0.00 | 92 | 1028.0 | |
| 20260502233018 | 7 | 0.0 | 3.2 | 0.00 | 0.00 | 0.00 | 91 | 1027.6 | |
| 20260502230017 | 7 | 0.0 | 6.4 | 0.00 | 0.00 | 0.00 | 91 | 1027.3 | |
| 20260502223017 | 6 | 0 | 1.6 | 4.8 | 0.00 | 0.00 | 0.00 | 91 | 1027.0 |
| 20260502220018 | 5 | 0.0 | 3.2 | 0.00 | 0.00 | 0.00 | 90 | 1026.7 | |
| 20260502213018 | 5 | 0.0 | 0.0 | 0.00 | 0.00 | 0.00 | 89 | 1026.3 | |
| 20260502210017 | 5 | 0.0 | 1.6 | 0.00 | 0.00 | 0.00 | 89 | 1025.9 | |
| 20260502203017 | 6 | 0.0 | 3.2 | 0.00 | 0.00 | 0.00 | 89 | 1025.8 | |
| 20260502200017 | 6 | 0.0 | 1.6 | 0.00 | 0.00 | 0.00 | 88 | 1025.8 | |
| 20260502193017 | 6 | 0.0 | 3.2 | 0.00 | 0.00 | 0.00 | 88 | 1025.9 | |
| 20260502190018 | 6 | 0.0 | 0.0 | 0.00 | 0.00 | 0.00 | 87 | 1025.9 | |
| 20260502183017 | 7 | 0.0 | 3.2 | 0.00 | 0.00 | 0.00 | 87 | 1025.9 |